www.pogodaiklimat.ru
Время
и дата
20:43 30.12
20:46 30.12
20:54 30.12
21:38 30.12
21:54 30.12
22:54 30.12
23:07 30.12
23:54 30.12
00:34 31.12
00:39 31.12
00:45 31.12
00:49 31.12
00:54 31.12
01:03 31.12
01:12 31.12
01:54 31.12
02:54 31.12
03:03 31.12
03:54 31.12
04:12 31.12
04:54 31.12
05:03 31.12
05:11 31.12
05:17 31.12
05:54 31.12
06:54 31.12
07:54 31.12
08:24 31.12
08:54 31.12
09:40 31.12
09:45 31.12
09:54 31.12
10:02 31.12
10:12 31.12
10:26 31.12
10:54 31.12
11:37 31.12
11:54 31.12
12:42 31.12
12:54 31.12
13:54 31.12
14:43 31.12
14:54 31.12
15:34 31.12
15:54 31.12
16:54 31.12
17:54 31.12
18:05 31.01
Ветер
(напр.,м/с)
Видим. Явления Облачность Т
(С)
Тd
(С)
f
(%)
Тe
(С)
Тes
(С)
Комфортность P
(гПа)
Po
(гПа)
Тmin
(С)
Tmax
(С)
R
(мм)
R24
(мм)
S
(см)
В 1 1 км дымка 10/10 120 м +3.3 +3.3 100 0 0 981.3
В 1 2 км дымка 10/10 120 м +3.9 +3.3 96 0 0 981.3
В 1 2 км дымка 10/10 120 м +3.9 +3.3 96 0 0 1011.5 981.3
ЮВ 1 2 км дымка 10/10 60 м +3.9 +3.3 96 +1 +1 981.3
штиль 0 2 км дымка 10/10 60 м +3.9 +3.3 96 +3 +3 1011.1 981.0
ЮВ 1 1 км дымка 10/10 60 м +3.9 +3.3 96 0 0 1010.7 980.7
ЮВ 1 400 м туман ?/? +3.9 +3.9 100 0 0 980.7
ЮВ 1 400 м туман ?/? +3.9 +3.9 100 +1 +1 1010.6 980.7
Ю 1 400 м туман 10/10 180 м +3.9 +3.9 100 +1 +1 980.7
Ю 1 800 м туман 10/10 180 м +3.9 +3.9 100 +1 +1 980.7
Ю 1 2 км дымка 10/10 180 м +4.4 +3.9 97 +1 +1 980.7
Ю 1 3 км дымка 10/10 240 м +4.0 +4.0 100 0 0 980.7
ЮЗ 1 5 км дымка 10/10 240 м +5.0 +4.4 96 +1 +1 1010.6 980.7 +3.3 +5.0
ЮЗ 2 5 км дымка 10/10 300 м +5.0 +4.4 96 +1 +1 980.7
ЮЗ 2 6 км дымка 10/10 300 м +5.0 +4.4 96 +1 +1 980.7
ЮЗ 2 8 км дымка 10/10 360 м +5.0 +5.0 100 +1 +1 1010.4 980.4
ЮЗ 2 10 км дымка 10/10 450 м +5.0 +4.4 96 +1 +1 1010.7 980.7
ЮЗ 2 8 км дымка 10/10 510 м +5.0 +4.4 96 +1 +1 981.0
ЮЗ 1 8 км дымка 10/10 780 м +4.4 +3.9 97 +1 +1 1010.6 980.7
ЮЗ 1 8 км дымка 10/10 360 м +5.0 +3.9 93 +1 +1 980.4
Ю 1 8 км дымка 10/10 300 м +4.4 +4.4 100 +1 +1 1010.1 980.0
ЮЗ 1 6 км дымка 10/10 300 м +4.4 +3.9 97 +1 +1 980.4
штиль 0 6 км дымка 10/10 270 м +4.4 +3.9 97 +3 +3 980.4
ЮЗ 1 6 км дымка 10/10 270 м +4.4 +3.9 97 +1 +1 980.4
Ю 1 8 км дымка 10/10 300 м +5.0 +3.9 93 +2 +2 1010.4 980.4
Ю 1 6 км дымка 10/10 150 м +5.0 +4.4 96 +2 +2 1010.5 980.7 +4.4 +5.0
ЮЗ 1 6 км дымка 10/10 м +4.4 +3.9 97 +1 +1 1010.9 981.0
З 1 11 км 8/8 210 м +5.0 +3.9 93 +2 +2 981.0
З 1 16 км 8/8 180 м +5.6 +3.9 89 +3 +3 1011.2 981.3
Ю 1 3 км дымка 8/8 90 м +4.4 +3.9 97 +1 +1 981.0
Ю 1 3 км дымка 8/8 90 м +4.4 +3.9 97 +1 +1 981.3
Ю 1 3 км дымка 10/10 м +4.4 +3.9 97 +1 +1 1011.4 981.3
Ю 1 3 км дымка 8/8 90 м
[Ci]
+4.4 +3.9 97 +1 +2 981.3
ЮВ 1 3 км дымка 8/8 90 м
[Ci]
+5.0 +4.4 96 +2 +3 981.3
Ю 1 5 км дымка 8/8 90 м
[Ci]
+5.0 +4.4 96 +1 +2 981.3
ЮВ 1 8 км дымка 10/8 90 м
[Ci]
+6.1 +5.0 93 +3 +3 1011.3 981.3
ЮВ 1 13 км 8/5 180 м
[Ac Ci]
+7.8 +6.1 89 +5 +6 980.7
ЮВ 1 14 км 8/2 180 м
[Ac Ci]
+7.8 +6.1 89 +5 +6 1010.0 980.0
ЮВ 2 14 км 8/8 270 м
[Ci]
+8.9 +6.1 83 +6 +6 978.7
ЮВ 2 16 км 8/8 270 м
[Ci]
+8.9 +6.1 83 +6 +6 1008.3 978.7 +4.4 +8.9
Ю 2 14 км 10/10 м
[Ac]
+9.4 +6.7 83 +6 +6 1007.4 977.7
ЮВ 2 16 км 10/10 420 м +9.4 +6.7 83 +7 +7 977.4
ЮВ 2 16 км 10/10 420 м +9.4 +6.7 83 +6 +6 1006.9 977.1
ЮВ 2 16 км 10/10 480 м +9.4 +7.2 86 +6 +6 976.7
ЮВ 2 16 км 10/8 480 м
[Ci]
+10.0 +7.2 83 +7 +7 1006.1 976.4
ЮВ 2 16 км 10/8 420 м
[Ac Ci]
+9.4 +7.2 86 +6 +6 1005.7 976.1
ЮВ 3 16 км 10/10 330 м +8.9 +7.2 89 +5 +5 1004.1 974.4
ЮВ 2 13 км 10/10 270 м +8.9 +7.2 89 +5 +5 974.4
Местоположение метеостанции Fort Wayne International Airport: широта 40.9783 долгота -85.1953 высота над уровнем моря 248 м.
В архиве по умолчанию представлена погода в Форт-Уэйне за последние 1-2 суток. Обновление информации о фактической погоде в базе происходит ежечасно! Архивные данные за месяц целиком и за предыдущие месяцы Вы можете получить, выбрав интересующий диапазон дат из раскрывающегося списка и нажав кнопку "Ввод!".
Внимание! Архив погоды МЕТАР в базе сайта по станциям, не включенным в климатический монитор, хранится не более 60 дней. Нет смысла пытаться выбрать более раннюю дату.
*Определитесь, кто Вы:
Внимание! Время в таблицах - местное (без учета летнего времени). Для получения всемирного времени необходимо вычесть поправку, которая равна -5 ч.
Смотрите также архив погоды в соседних городах и на ближайших метеорологических станциях:
Партнеры нашего сайта:      
Пояснения к столбцам:
  • Ветер - указаны скорость ветра в м/с - средняя за 10 мин, порывы в срок и между сроками (в фигурных скобках) и направление, откуда дует ветер: С - северный,
  • СВ - северо-восточный, В - восточный, ЮВ - юго-восточный, Ю - южный, ЮЗ - юго-западный, З - западный, СЗ - северо-западный.
  • Видимость - горизонтальная дальность видимости в метрах или километрах. При видимости от 1 до 10 км при отсутствии осадков обычно наблюдается дымка, при ухудшении видимости до 1 км и менее - туман. В сухую погоду видимость может ухудшаться дымом, пылью или мглою.
  • Явления - указаны атмосферные явления, наблюдавшиеся в срок или в последний час перед сроком; фигурными скобками обозначены явления, наблюдавшиеся между сроками (за 1-3 часа до срока); квадратными скобками обозначены град или гололедные отложения с указанием их диаметра в мм.
  • Облачность - указаны через наклонную черту общая и нижняя облачность в баллах и высота нижней границы облаков в метрах; квадратными скобками обозначены формы облаков: Ci - перистые, Cs - перисто-слоистые, Cc - перисто-кучевые, Ac - высококучевые, As - высокослоистые, Sc - слоисто-кучевые, Ns - слоисто-дождевые, Cu - кучевые, Cb - кучево-дождевые. Подробнее классификацию облаков см. в Атласе облаков (PDF).
  • T - Температура воздуха - температура, измеренная на высоте 2 м над землей.
  • Td - Температура точки росы - температура, при понижении до которой содержащийся в воздухе водяной пар достигнет насыщения.
  • f - Относительная влажность воздуха - влажноcть воздуха, измеренная на высоте 2 м над землей.
  • Te - Эффективная температура - температура, которую ощущает одетый по сезону человек в тени. Характеристика душности погоды. При расчете учитывается влияние влажности воздуха и скорости ветра на теплоощущения человека.
  • Tes - Эффективная температура на солнце - температура, которую ощущает человек, с поправкой на солнечный нагрев. Характеристика знойности погоды. Зависит от высоты солнца над горизонтом, облачности и скорости ветра. Ночью, в пасмурную погоду, а также при ветре 12 м/с и более поправка равна нулю.
  • P - Атмосферное давление - приведенное к уровню моря атмосферное давление.
  • Po - Атмосферное давление - измеренное на уровне метеостанции атмосферное давление.
  • Tmin - Минимальная температура - минимум температуры воздуха на высоте 2 м над землей.
  • Tmax - Максимальная температура - максимум температуры воздуха на высоте 2 м над землей.
  • R - Количество осадков - Количество выпавших осадков за период времени, мм. При наведении курсора мыши на число - период времени, за который выпало указанное количество осадков.
  • R24 - Количество осадков - Количество выпавших осадков за 24 часа, мм.
  • S - Снежный покров - Высота снежного покрова, см. При наведении курсора мыши на число - состояние снежного покрова и степень покрытия местности в баллах.